Weather History for Hot Springs, VA

Change the Weather History Date:

Wednesday, June 13, 2012

  Actual Average Record
Temperature  
Mean Temperature 64 °F -  
Max Temperature 69 °F 70 °F 80 °F (2000)
Min Temperature 57 °F 55 °F 51 °F (2006)
Degree Days  
Heating Degree Days 1    
Growing Degree Days 14 (Base 50)    
Moisture  
Dew Point 54 °F    
Average Humidity 74    
Maximum Humidity 100    
Minimum Humidity 40    
Precipitation  
Precipitation 0.00 in - - ()
Sea Level Pressure  
Sea Level Pressure 30.15 in    
Wind  
Wind Speed 7 mph (NNW)    
Max Wind Speed 13 mph    
Max Gust Speed 17 mph    
Visibility 8 miles    
Events Fog    
Averages and records for this station are not official NWS values.
T = Trace of Precipitation, MM = Missing Value Source: NWS Daily Summary

Daily Weather History Graph

Daily Weather History Graph

Search for Another Location

Airport:

Trip Planner

Search our weather history database for the weather conditions in past years. The results will help you decide how hot, cold, wet, or windy it might be!

Date:

Astronomy

Jun. 13, 2012 Rise Set
Actual Time 5:56 AM EDT 8:42 PM EDT
Civil Twilight 5:24 AM EDT 9:14 PM EDT
Nautical Twilight 4:45 AM EDT 9:53 PM EDT
Astronomical Twilight 4:01 AM EDT 10:38 PM EDT
Moon 2:04 AM EDT (6/13) 3:31 PM EDT (6/13)
Length of Visible Light 15h 49m
Length of Day
14h 46m
Waning Crescent, 29% of the Moon is Illuminated
Jun 13
Waning Crescent
Jun 19
New
Jun 26
First Quarter
Jul 3
Full
Jul 10
Last Quarter

Hourly Weather History & Observations

Time (EDT) Temp. Dew Point Humidity Pressure Visibility Wind Dir Wind Speed Gust Speed Precip Events Conditions
12:35 AM 62.6 °F 62.6 °F 100% 30.10 in 10.0 mi WNW 6.9 mph - N/A   Scattered Clouds
12:55 AM 64.4 °F 62.6 °F 94% 30.10 in 10.0 mi NW 6.9 mph - N/A   Scattered Clouds
1:15 AM 62.6 °F 62.6 °F 100% 30.09 in 10.0 mi WNW 8.1 mph - N/A   Clear
1:35 AM 62.6 °F 62.6 °F 100% 30.09 in 7.0 mi WNW 8.1 mph - N/A   Mostly Cloudy
1:55 AM 62.6 °F 62.6 °F 100% 30.10 in 7.0 mi NW 5.8 mph - N/A   Mostly Cloudy
2:15 AM 62.6 °F 62.6 °F 100% 30.10 in 5.0 mi NW 8.1 mph - N/A   Mostly Cloudy
2:35 AM 62.6 °F 60.8 °F 94% 30.10 in 7.0 mi NW 11.5 mph - N/A   Scattered Clouds
2:55 AM 62.6 °F 60.8 °F 94% 30.10 in 7.0 mi NW 5.8 mph - N/A   Clear
3:15 AM 60.8 °F 60.8 °F 100% 30.10 in 7.0 mi NNW 6.9 mph - N/A   Clear
3:35 AM 60.8 °F 60.8 °F 100% 30.10 in 5.0 mi NNW 6.9 mph - N/A   Scattered Clouds
3:55 AM 60.8 °F 60.8 °F 100% 30.10 in 5.0 mi North 8.1 mph - N/A   Scattered Clouds
4:15 AM 60.8 °F 60.8 °F 100% 30.11 in 7.0 mi North 8.1 mph - N/A   Clear
4:35 AM 60.8 °F 60.8 °F 100% 30.11 in 7.0 mi North 9.2 mph - N/A   Clear
4:55 AM 60.8 °F 60.8 °F 100% 30.11 in 7.0 mi North 8.1 mph - N/A   Clear
5:15 AM 60.8 °F 59.0 °F 94% 30.11 in 7.0 mi North 5.8 mph - N/A   Clear
5:35 AM 59.0 °F 59.0 °F 100% 30.12 in 5.0 mi North 5.8 mph - N/A   Clear
5:55 AM 59.0 °F 59.0 °F 100% 30.12 in 7.0 mi North 6.9 mph - N/A   Clear
6:15 AM 59.0 °F 57.2 °F 94% 30.12 in 5.0 mi North 5.8 mph - N/A   Clear
6:35 AM 59.0 °F 59.0 °F 100% 30.13 in 4.0 mi North 4.6 mph - N/A   Clear
6:55 AM 60.8 °F 59.0 °F 94% 30.13 in 0.5 mi NNW 4.6 mph - N/A Fog Fog
7:35 AM 60.8 °F 59.0 °F 94% 30.13 in 5.0 mi North 4.6 mph - N/A   Clear
7:38 AM 60.8 °F 59.0 °F 94% 30.13 in 5.0 mi North 5.8 mph - N/A   Clear
7:55 AM 60.8 °F 57.2 °F 88% 30.14 in 7.0 mi North 5.8 mph - N/A   Clear
8:06 AM 60.8 °F 57.2 °F 88% 30.14 in 7.0 mi North 6.9 mph - N/A   Clear
8:15 AM 60.8 °F 57.2 °F 88% 30.14 in 7.0 mi North 6.9 mph - N/A   Clear
8:18 AM 60.8 °F 57.2 °F 88% 30.13 in 7.0 mi NNW 5.8 mph - N/A   Clear
8:35 AM 59.0 °F 59.0 °F 100% 30.14 in 3.0 mi NW 3.5 mph - N/A   Scattered Clouds
8:38 AM 59.0 °F 59.0 °F 100% 30.14 in 2.5 mi NNW 3.5 mph - N/A   Scattered Clouds
8:55 AM 60.8 °F 59.0 °F 94% 30.14 in 4.0 mi NNW 8.1 mph - N/A   Mostly Cloudy
8:57 AM 60.8 °F 59.0 °F 94% 30.14 in 5.0 mi NNW 6.9 mph - N/A   Mostly Cloudy
9:15 AM 60.8 °F 59.0 °F 94% 30.13 in 5.0 mi NW 8.1 mph - N/A   Mostly Cloudy
9:16 AM 60.8 °F 59.0 °F 94% 30.13 in 5.0 mi NW 6.9 mph - N/A   Mostly Cloudy
9:35 AM 62.6 °F 59.0 °F 88% 30.13 in 7.0 mi NNW 9.2 mph - N/A   Mostly Cloudy
9:36 AM 62.6 °F 59.0 °F 88% 30.13 in 7.0 mi NNW 11.5 mph - N/A   Mostly Cloudy
9:56 AM 62.6 °F 57.2 °F 82% 30.13 in 10.0 mi NW 11.5 mph 16.1 mph N/A   Scattered Clouds
10:15 AM 62.6 °F 57.2 °F 82% 30.14 in 10.0 mi NW 11.5 mph 17.3 mph N/A   Clear
10:16 AM 62.6 °F 57.2 °F 82% 30.13 in 10.0 mi NW 12.7 mph 17.3 mph N/A   Clear
10:35 AM 62.6 °F 57.2 °F 82% 30.14 in 10.0 mi NNW 12.7 mph 17.3 mph N/A   Scattered Clouds
10:37 AM 62.6 °F 57.2 °F 82% 30.14 in 10.0 mi NNW 12.7 mph 17.3 mph N/A   Scattered Clouds
10:55 AM 64.4 °F 59.0 °F 83% 30.15 in 10.0 mi NNW 9.2 mph 17.3 mph N/A   Scattered Clouds
10:57 AM 64.4 °F 57.2 °F 77% 30.15 in 10.0 mi NNW 10.4 mph - N/A   Scattered Clouds
11:15 AM 64.4 °F 57.2 °F 77% 30.15 in 10.0 mi NW 9.2 mph - N/A   Scattered Clouds
11:16 AM 64.4 °F 57.2 °F 77% 30.15 in 10.0 mi NW 8.1 mph - N/A   Scattered Clouds
11:35 AM 64.4 °F 55.4 °F 73% 30.15 in 10.0 mi NW 8.1 mph - N/A   Scattered Clouds
11:36 AM 64.4 °F 55.4 °F 73% 30.15 in 10.0 mi NW 9.2 mph - N/A   Scattered Clouds
11:55 AM 66.2 °F 55.4 °F 68% 30.16 in 10.0 mi NW 10.4 mph - N/A   Scattered Clouds
12:15 PM 66.2 °F 55.4 °F 68% 30.17 in 10.0 mi NW 5.8 mph - N/A   Scattered Clouds
12:35 PM 66.2 °F 53.6 °F 64% 30.17 in 10.0 mi WNW 8.1 mph - N/A   Clear
12:55 PM 66.2 °F 55.4 °F 68% 30.18 in 10.0 mi WNW 5.8 mph - N/A   Clear
1:15 PM 66.2 °F 53.6 °F 64% 30.18 in 10.0 mi NW 8.1 mph - N/A   Clear
1:35 PM 68.0 °F 53.6 °F 60% 30.18 in 10.0 mi WNW 5.8 mph - N/A   Clear
1:55 PM 69.8 °F 53.6 °F 56% 30.18 in 10.0 mi NW 6.9 mph - N/A   Clear
2:35 PM 69.8 °F 50.0 °F 49% 30.17 in 10.0 mi NNW 9.2 mph 16.1 mph N/A   Clear
2:55 PM 69.8 °F 50.0 °F 49% 30.17 in 10.0 mi NW 6.9 mph - N/A   Clear
3:15 PM 69.8 °F 51.8 °F 53% 30.17 in 10.0 mi NW 4.6 mph - N/A   Clear
3:35 PM 69.8 °F 51.8 °F 53% 30.17 in 10.0 mi North 6.9 mph - N/A   Clear
3:55 PM 69.8 °F 51.8 °F 53% 30.17 in 10.0 mi NW 8.1 mph - N/A   Clear
4:15 PM 69.8 °F 51.8 °F 53% 30.17 in 10.0 mi NNW 8.1 mph - N/A   Clear
4:35 PM 69.8 °F 50.0 °F 49% 30.17 in 10.0 mi North 8.1 mph - N/A   Clear
4:55 PM 69.8 °F 46.4 °F 43% 30.17 in 10.0 mi NNW 8.1 mph - N/A   Clear
5:15 PM 69.8 °F 46.4 °F 43% 30.17 in 10.0 mi NNW 8.1 mph - N/A   Clear
5:35 PM 69.8 °F 46.4 °F 43% 30.17 in 10.0 mi NNW 9.2 mph - N/A   Clear
5:55 PM 69.8 °F 44.6 °F 40% 30.17 in 10.0 mi NNW 5.8 mph - N/A   Clear
6:15 PM 69.8 °F 46.4 °F 43% 30.16 in 10.0 mi NW 5.8 mph - N/A   Clear
6:35 PM 69.8 °F 46.4 °F 43% 30.16 in 10.0 mi North 10.4 mph - N/A   Clear
6:55 PM 68.0 °F 44.6 °F 43% 30.16 in 10.0 mi North 8.1 mph - N/A   Clear
7:15 PM 68.0 °F 46.4 °F 46% 30.16 in 10.0 mi North 6.9 mph - N/A   Clear
7:35 PM 66.2 °F 46.4 °F 49% 30.17 in 10.0 mi NNW 6.9 mph - N/A   Clear
7:55 PM 66.2 °F 46.4 °F 49% 30.17 in 10.0 mi NNW 4.6 mph - N/A   Clear
8:15 PM 64.4 °F 44.6 °F 49% 30.18 in 10.0 mi NNW 5.8 mph - N/A   Clear
8:35 PM 62.6 °F 44.6 °F 52% 30.18 in 10.0 mi NNW 5.8 mph - N/A   Clear
8:55 PM 60.8 °F 44.6 °F 55% 30.18 in 10.0 mi NNW 6.9 mph - N/A   Clear
9:15 PM 60.8 °F 42.8 °F 52% 30.19 in 10.0 mi NNW 5.8 mph - N/A   Clear
9:35 PM 60.8 °F 42.8 °F 52% 30.20 in 10.0 mi NNW 5.8 mph - N/A   Clear
9:55 PM 59.0 °F 42.8 °F 55% 30.19 in 10.0 mi North 5.8 mph - N/A   Clear
10:15 PM 59.0 °F 42.8 °F 55% 30.20 in 10.0 mi North 8.1 mph - N/A   Clear
10:35 PM 59.0 °F 42.8 °F 55% 30.21 in 10.0 mi North 5.8 mph - N/A   Clear
10:55 PM 59.0 °F 42.8 °F 55% 30.21 in 10.0 mi Calm Calm - N/A   Clear
11:15 PM 60.8 °F 41.0 °F 48% 30.22 in 10.0 mi NE 6.9 mph - N/A   Clear
11:35 PM 59.0 °F 41.0 °F 51% 30.22 in 10.0 mi ENE 6.9 mph - N/A   Clear
11:55 PM 57.2 °F 41.0 °F 55% 30.22 in 10.0 mi ENE 6.9 mph - N/A   Clear